• In Uzbekistan
  • List of Countries
  • For 7 days
  • Water Temperature
  • Satellite Maps
  • Weather Map
  • Weather Widgets
  • user-avatar
    Login

    Hourly Weather Kanggye

    Today, 16 November, Friday

    Time Temperature Precipitation Wind Pressure Humidity
    00:00 +3°C° 0.5 mm 2 mps 735 mmHg 89%
    01:00 +3°C° 0.5 mm 2 mps 735 mmHg 89%
    02:00 +2°C° 0 mm 2 mps 735 mmHg 89%
    03:00 +1°C° 0.1 mm 2 mps 735 mmHg 87%
    04:00 -1°C° 0.1 mm 2 mps 735 mmHg 85%
    05:00 -1°C° 0.1 mm 2 mps 735 mmHg 83%
    06:00 -2°C° 0 mm 2 mps 735 mmHg 80%
    07:00 -2°C° 0 mm 2 mps 735 mmHg 76%
    08:00 +1°C° 0 mm 1 mps 735 mmHg 66%
    09:00 +2°C° 0 mm 1 mps 735 mmHg 59%
    10:00 +2°C° 0 mm 2 mps 735 mmHg 51%
    11:00 +3°C° 0 mm 2 mps 735 mmHg 44%
    12:00 +3°C° 0 mm 2 mps 734 mmHg 42%
    13:00 +4°C° 0 mm 2 mps 734 mmHg 40%
    14:00 +4°C° 0 mm 2 mps 733 mmHg 38%
    15:00 +3°C° 0 mm 1 mps 733 mmHg 44%
    16:00 +2°C° 0 mm 1 mps 733 mmHg 50%
    17:00 0°C° 0 mm 1 mps 734 mmHg 56%
    18:00 0°C° 0 mm 1 mps 734 mmHg 56%
    19:00 0°C° 0 mm 1 mps 734 mmHg 56%
    20:00 -2°C° 0 mm 0 mps 734 mmHg 56%
    21:00 -2°C° 0 mm 0 mps 734 mmHg 55%
    22:00 -2°C° 0 mm 0 mps 734 mmHg 53%
    23:00 -2°C° 0 mm 0 mps 735 mmHg 52%

    Tomorrow, 17 November, Saturday

    Time Temperature Precipitation Wind Pressure Humidity
    00:00 -2°C° 0 mm 0 mps 735 mmHg 51%
    01:00 -2°C° 0 mm 0 mps 735 mmHg 50%
    02:00 -2°C° 0 mm 0 mps 735 mmHg 49%
    03:00 -2°C° 0 mm 0 mps 735 mmHg 48%
    04:00 -2°C° 0 mm 0 mps 735 mmHg 47%
    05:00 -3°C° 0 mm 0 mps 735 mmHg 46%
    06:00 -2°C° 0 mm 0 mps 735 mmHg 41%
    07:00 -1°C° 0 mm 0 mps 735 mmHg 37%
    08:00 0°C° 0 mm 0 mps 735 mmHg 33%
    09:00 +2°C° 0 mm 0 mps 734 mmHg 29%
    10:00 +5°C° 0 mm 1 mps 734 mmHg 25%
    11:00 +6°C° 0 mm 1 mps 734 mmHg 21%
    12:00 +6°C° 0 mm 1 mps 734 mmHg 22%
    13:00 +6°C° 0 mm 1 mps 733 mmHg 23%
    14:00 +6°C° 0 mm 1 mps 733 mmHg 25%
    15:00 +5°C° 0 mm 1 mps 733 mmHg 30%
    16:00 +3°C° 0 mm 1 mps 733 mmHg 36%
    17:00 0°C° 0 mm 0 mps 733 mmHg 41%
    18:00 0°C° 0 mm 0 mps 733 mmHg 42%
    19:00 0°C° 0 mm 0 mps 733 mmHg 44%
    20:00 -1°C° 0 mm 0 mps 733 mmHg 45%
    21:00 -1°C° 0 mm 0 mps 733 mmHg 46%
    22:00 -1°C° 0 mm 0 mps 733 mmHg 46%
    23:00 -1°C° 0 mm 0 mps 733 mmHg 47%

    Day after tomorrow, 18 November, Sunday

    Time Temperature Precipitation Wind Pressure Humidity
    00:00 -2°C° 0 mm 0 mps 733 mmHg 47%
    01:00 -2°C° 0 mm 0 mps 733 mmHg 47%
    02:00 -2°C° 0 mm 0 mps 733 mmHg 47%
    03:00 -2°C° 0 mm 0 mps 733 mmHg 47%
    04:00 -2°C° 0 mm 0 mps 733 mmHg 47%
    05:00 -2°C° 0 mm 0 mps 732 mmHg 47%
    06:00 -1°C° 0 mm 0 mps 733 mmHg 44%
    07:00 0°C° 0 mm 0 mps 733 mmHg 40%
    08:00 +1°C° 0 mm 0 mps 733 mmHg 37%
    09:00 +3°C° 0 mm 1 mps 733 mmHg 33%
    10:00 +5°C° 0 mm 1 mps 732 mmHg 28%
    11:00 +6°C° 0 mm 1 mps 732 mmHg 24%
    12:00 +5°C° 0 mm 2 mps 731 mmHg 25%
    13:00 +6°C° 0 mm 2 mps 731 mmHg 26%
    14:00 +6°C° 0 mm 2 mps 731 mmHg 28%
    15:00 +4°C° 0 mm 2 mps 731 mmHg 35%
    16:00 +3°C° 0 mm 1 mps 731 mmHg 43%
    17:00 +1°C° 0 mm 1 mps 731 mmHg 50%
    18:00 +1°C° 0 mm 1 mps 731 mmHg 53%
    19:00 +1°C° 0 mm 1 mps 732 mmHg 55%
    20:00 0°C° 0 mm 1 mps 732 mmHg 58%
    21:00 0°C° 0 mm 1 mps 732 mmHg 60%
    22:00 0°C° 0 mm 1 mps 732 mmHg 61%
    23:00 0°C° 0 mm 1 mps 732 mmHg 63%

    19 November, Monday

    Time Temperature Precipitation Wind Pressure Humidity
    00:00 0°C° 0 mm 1 mps 732 mmHg 66%
    01:00 -1°C° 0 mm 0 mps 733 mmHg 69%
    02:00 -2°C° 0 mm 0 mps 733 mmHg 73%
    03:00 -2°C° 0 mm 0 mps 733 mmHg 75%
    04:00 -2°C° 0 mm 0 mps 733 mmHg 77%
    05:00 -2°C° 0 mm 0 mps 733 mmHg 79%
    06:00 -2°C° 0 mm 0 mps 734 mmHg 73%
    07:00 -1°C° 0 mm 0 mps 734 mmHg 66%
    08:00 0°C° 0 mm 0 mps 734 mmHg 60%
    09:00 +1°C° 0 mm 0 mps 734 mmHg 52%
    10:00 +3°C° 0 mm 0 mps 734 mmHg 43%
    11:00 +5°C° 0 mm 1 mps 734 mmHg 35%
    12:00 +5°C° 0 mm 1 mps 734 mmHg 35%
    13:00 +5°C° 0 mm 1 mps 733 mmHg 35%
    14:00 +5°C° 0 mm 1 mps 733 mmHg 34%
    15:00 +3°C° 0 mm 1 mps 733 mmHg 41%
    16:00 +2°C° 0 mm 1 mps 733 mmHg 47%
    17:00 -1°C° 0 mm 0 mps 733 mmHg 53%
    18:00 -1°C° 0 mm 0 mps 733 mmHg 54%
    19:00 -1°C° 0 mm 0 mps 734 mmHg 55%
    20:00 -1°C° 0 mm 0 mps 734 mmHg 57%
    21:00 0°C° 0 mm 1 mps 734 mmHg 57%
    22:00 -1°C° 0 mm 1 mps 734 mmHg 58%
    23:00 -1°C° 0 mm 1 mps 734 mmHg 58%

    20 November, Tuesday

    Time Temperature Precipitation Wind Pressure Humidity
    00:00 -1°C° 0 mm 1 mps 734 mmHg 58%
    01:00 -1°C° 0 mm 1 mps 734 mmHg 57%
    02:00 -1°C° 0 mm 1 mps 734 mmHg 57%
    03:00 -1°C° 0 mm 1 mps 734 mmHg 56%
    04:00 -1°C° 0 mm 1 mps 733 mmHg 56%
    05:00 -1°C° 0 mm 1 mps 733 mmHg 55%
    06:00 0°C° 0.1 mm 1 mps 733 mmHg 56%
    07:00 -1°C° 0.1 mm 2 mps 732 mmHg 57%
    08:00 +1°C° 0.1 mm 2 mps 732 mmHg 58%
    09:00 +1°C° 0.6 mm 2 mps 732 mmHg 65%
    10:00 +2°C° 0.6 mm 2 mps 732 mmHg 72%
    11:00 +2°C° 0.6 mm 3 mps 731 mmHg 79%
    12:00 +3°C° 0.3 mm 2 mps 731 mmHg 79%
    13:00 +3°C° 0.3 mm 2 mps 731 mmHg 80%
    14:00 +4°C° 0.3 mm 2 mps 731 mmHg 81%
    15:00 +3°C° 0.1 mm 2 mps 731 mmHg 83%
    16:00 +2°C° 0.1 mm 2 mps 731 mmHg 86%
    17:00 +1°C° 0.1 mm 2 mps 732 mmHg 89%
    18:00 -1°C° 0.1 mm 2 mps 732 mmHg 89%
    19:00 +1°C° 0.1 mm 1 mps 733 mmHg 89%
    20:00 0°C° 0.1 mm 1 mps 733 mmHg 89%
    21:00 -1°C° 0 mm 1 mps 734 mmHg 88%
    22:00 -2°C° 0 mm 1 mps 734 mmHg 88%
    23:00 -2°C° 0 mm 1 mps 734 mmHg 87%

    21 November, Wednesday

    Time Temperature Precipitation Wind Pressure Humidity
    00:00 -3°C° 0 mm 1 mps 734 mmHg 85%
    01:00 -3°C° 0 mm 1 mps 735 mmHg 83%
    02:00 -4°C° 0 mm 1 mps 735 mmHg 81%
    03:00 -4°C° 0 mm 1 mps 735 mmHg 79%
    04:00 -6°C° 0 mm 1 mps 735 mmHg 77%
    05:00 -6°C° 0 mm 1 mps 735 mmHg 75%
    06:00 -6°C° 0 mm 1 mps 735 mmHg 70%
    07:00 -6°C° 0 mm 1 mps 736 mmHg 65%
    08:00 -6°C° 0 mm 1 mps 736 mmHg 60%
    09:00 -3°C° 0 mm 1 mps 736 mmHg 51%
    10:00 -2°C° 0 mm 1 mps 736 mmHg 42%
    11:00 0°C° 0 mm 1 mps 736 mmHg 33%
    12:00 0°C° 0 mm 1 mps 735 mmHg 33%
    13:00 0°C° 0 mm 1 mps 734 mmHg 33%
    14:00 0°C° 0 mm 1 mps 734 mmHg 32%
    15:00 -1°C° 0 mm 1 mps 734 mmHg 38%
    16:00 -2°C° 0 mm 1 mps 735 mmHg 44%
    17:00 -5°C° 0 mm 0 mps 735 mmHg 49%
    18:00 -5°C° 0 mm 0 mps 735 mmHg 50%
    19:00 -4°C° 0 mm 1 mps 735 mmHg 51%
    20:00 -4°C° 0 mm 1 mps 735 mmHg 52%
    21:00 -6°C° 0 mm 1 mps 735 mmHg 52%
    22:00 -6°C° 0 mm 1 mps 735 mmHg 53%
    23:00 -6°C° 0 mm 1 mps 735 mmHg 53%
    Show more